Year,Month,Day,Hour,Minute,Value (Times are PST for temperature in C)
2010,05,04,00,00,6.00
2010,05,04,00,01,6.00
2010,05,04,00,02,5.90
2010,05,04,00,03,5.90
2010,05,04,00,04,5.90
2010,05,04,00,05,5.90
2010,05,04,00,06,5.90
2010,05,04,00,07,6.00
2010,05,04,00,08,6.00
2010,05,04,00,09,6.00
2010,05,04,00,10,6.00
2010,05,04,00,11,5.90
2010,05,04,00,12,6.00
2010,05,04,00,13,6.00
2010,05,04,00,14,6.00
2010,05,04,00,15,6.00
2010,05,04,00,16,5.90
2010,05,04,00,17,5.90
2010,05,04,00,18,5.90
2010,05,04,00,19,5.90
2010,05,04,00,20,5.90
2010,05,04,00,21,5.90
2010,05,04,00,22,5.80
2010,05,04,00,23,5.80
2010,05,04,00,24,5.70
2010,05,04,00,25,5.70
2010,05,04,00,26,5.60
2010,05,04,00,27,5.50
2010,05,04,00,28,5.50
2010,05,04,00,29,5.40
2010,05,04,00,30,5.30
2010,05,04,00,31,5.30
2010,05,04,00,32,5.20
2010,05,04,00,33,5.20
2010,05,04,00,34,5.10
2010,05,04,00,35,5.10
2010,05,04,00,36,5.00
2010,05,04,00,37,4.90
2010,05,04,00,38,4.90
2010,05,04,00,39,4.90
2010,05,04,00,40,4.80
2010,05,04,00,41,4.90
2010,05,04,00,42,4.80
2010,05,04,00,43,4.80
2010,05,04,00,44,4.80
2010,05,04,00,45,4.80
2010,05,04,00,46,4.70
2010,05,04,00,47,4.80
2010,05,04,00,48,4.80
2010,05,04,00,49,4.80
2010,05,04,00,50,4.90
2010,05,04,00,51,4.90
2010,05,04,00,52,4.90
2010,05,04,00,53,5.00
2010,05,04,00,54,5.10
2010,05,04,00,55,5.10
2010,05,04,00,56,5.10
2010,05,04,00,57,5.10
2010,05,04,00,58,5.10
2010,05,04,00,59,5.20
2010,05,04,01,00,5.20
2010,05,04,01,01,5.20
2010,05,04,01,02,5.30
2010,05,04,01,03,5.30
2010,05,04,01,04,5.30
2010,05,04,01,05,5.30
2010,05,04,01,06,5.30
2010,05,04,01,07,5.30
2010,05,04,01,08,5.20
2010,05,04,01,09,5.20
2010,05,04,01,10,5.10
2010,05,04,01,11,5.10
2010,05,04,01,12,5.00
2010,05,04,01,13,4.90
2010,05,04,01,14,4.90
2010,05,04,01,15,4.80
2010,05,04,01,16,4.70
2010,05,04,01,17,4.60
2010,05,04,01,18,4.60
2010,05,04,01,19,4.60
2010,05,04,01,20,4.50
2010,05,04,01,21,4.50
2010,05,04,01,22,4.50
2010,05,04,01,23,4.40
2010,05,04,01,24,4.40
2010,05,04,01,25,4.40
2010,05,04,01,26,4.40
2010,05,04,01,27,4.40
2010,05,04,01,28,4.40
2010,05,04,01,29,4.40
2010,05,04,01,30,4.40
2010,05,04,01,31,4.40
2010,05,04,01,32,4.40
2010,05,04,01,33,4.30
2010,05,04,01,34,4.30
2010,05,04,01,35,4.40
2010,05,04,01,36,4.40
2010,05,04,01,37,4.40
2010,05,04,01,38,4.40
2010,05,04,01,39,4.40
2010,05,04,01,40,4.40
2010,05,04,01,41,4.40
2010,05,04,01,42,4.40
2010,05,04,01,43,4.50
2010,05,04,01,44,4.50
2010,05,04,01,45,4.50
2010,05,04,01,46,4.50
2010,05,04,01,47,4.50
2010,05,04,01,48,4.60
2010,05,04,01,49,4.60
2010,05,04,01,50,4.60
2010,05,04,01,51,4.60
2010,05,04,01,52,4.60
2010,05,04,01,53,4.60
2010,05,04,01,54,4.60
2010,05,04,01,55,4.60
2010,05,04,01,56,4.60
2010,05,04,01,57,4.50
2010,05,04,01,58,4.50
2010,05,04,01,59,4.50
2010,05,04,02,00,4.40
2010,05,04,02,01,4.40
2010,05,04,02,02,4.40
2010,05,04,02,03,4.30
2010,05,04,02,04,4.30
2010,05,04,02,05,4.20
2010,05,04,02,06,4.20
2010,05,04,02,07,4.20
2010,05,04,02,08,4.20
2010,05,04,02,09,4.20
2010,05,04,02,10,4.20
2010,05,04,02,11,4.10
2010,05,04,02,12,4.10
2010,05,04,02,13,4.10
2010,05,04,02,14,4.10
2010,05,04,02,15,4.00
2010,05,04,02,16,4.00
2010,05,04,02,17,4.00
2010,05,04,02,18,4.00
2010,05,04,02,19,3.90
2010,05,04,02,20,3.90
2010,05,04,02,21,3.80
2010,05,04,02,22,3.80
2010,05,04,02,23,3.80
2010,05,04,02,24,3.80
2010,05,04,02,25,3.80
2010,05,04,02,26,3.80
2010,05,04,02,27,3.80
2010,05,04,02,28,3.80
2010,05,04,02,29,3.80
2010,05,04,02,30,3.80
2010,05,04,02,31,3.80
2010,05,04,02,32,3.80
2010,05,04,02,33,3.80
2010,05,04,02,34,3.80
2010,05,04,02,35,3.80
2010,05,04,02,36,3.80
2010,05,04,02,37,3.80
2010,05,04,02,38,3.80
2010,05,04,02,39,3.80
2010,05,04,02,40,3.80
2010,05,04,02,41,3.80
2010,05,04,02,42,3.80
2010,05,04,02,43,3.80
2010,05,04,02,44,3.80
2010,05,04,02,45,3.80
2010,05,04,02,46,3.80
2010,05,04,02,47,3.80
2010,05,04,02,48,3.80
2010,05,04,02,49,3.80
2010,05,04,02,50,3.90
2010,05,04,02,51,3.90
2010,05,04,02,52,3.90
2010,05,04,02,53,3.90
2010,05,04,02,54,3.90
2010,05,04,02,55,3.90
2010,05,04,02,56,3.90
2010,05,04,02,57,3.90
2010,05,04,02,58,3.90
2010,05,04,02,59,3.90
2010,05,04,03,00,3.80
2010,05,04,03,01,3.80
2010,05,04,03,02,3.80
2010,05,04,03,03,3.80
2010,05,04,03,04,3.80
2010,05,04,03,05,3.80
2010,05,04,03,06,3.80
2010,05,04,03,07,3.90
2010,05,04,03,08,3.90
2010,05,04,03,09,3.90
2010,05,04,03,10,3.90
2010,05,04,03,11,3.90
2010,05,04,03,12,4.00
2010,05,04,03,13,4.00
2010,05,04,03,14,4.10
2010,05,04,03,15,4.20
2010,05,04,03,16,4.20
2010,05,04,03,17,4.20
2010,05,04,03,18,4.30
2010,05,04,03,19,4.40
2010,05,04,03,20,4.40
2010,05,04,03,21,4.40
2010,05,04,03,22,4.40
2010,05,04,03,23,4.40
2010,05,04,03,24,4.40
2010,05,04,03,25,4.40
2010,05,04,03,26,4.40
2010,05,04,03,27,4.40
2010,05,04,03,28,4.40
2010,05,04,03,29,4.30
2010,05,04,03,30,4.30
2010,05,04,03,31,4.30
2010,05,04,03,32,4.20
2010,05,04,03,33,4.20
2010,05,04,03,34,4.20
2010,05,04,03,35,4.10
2010,05,04,03,36,4.10
2010,05,04,03,37,4.00
2010,05,04,03,38,4.00
2010,05,04,03,39,3.90
2010,05,04,03,40,3.90
2010,05,04,03,41,3.80
2010,05,04,03,42,3.80
2010,05,04,03,43,3.80
2010,05,04,03,44,3.80
2010,05,04,03,45,3.80
2010,05,04,03,46,3.80
2010,05,04,03,47,3.80
2010,05,04,03,48,3.80
2010,05,04,03,49,3.70
2010,05,04,03,50,3.70
2010,05,04,03,51,3.70
2010,05,04,03,52,3.60
2010,05,04,03,53,3.60
2010,05,04,03,54,3.50
2010,05,04,03,55,3.50
2010,05,04,03,56,3.40
2010,05,04,03,57,3.40
2010,05,04,03,58,3.30
2010,05,04,03,59,3.30
2010,05,04,04,00,3.30
2010,05,04,04,01,3.20
2010,05,04,04,02,3.10
2010,05,04,04,03,3.10
2010,05,04,04,04,3.10
2010,05,04,04,05,3.10
2010,05,04,04,06,3.00
2010,05,04,04,07,2.90
2010,05,04,04,08,2.90
2010,05,04,04,09,2.90
2010,05,04,04,10,2.80
2010,05,04,04,11,2.80
2010,05,04,04,12,2.80
2010,05,04,04,13,2.80
2010,05,04,04,14,2.80
2010,05,04,04,15,2.80
2010,05,04,04,16,2.70
2010,05,04,04,17,2.70
2010,05,04,04,18,2.70
2010,05,04,04,19,2.70
2010,05,04,04,20,2.70
2010,05,04,04,21,2.70
2010,05,04,04,22,2.70
2010,05,04,04,23,2.70
2010,05,04,04,24,2.60
2010,05,04,04,25,2.60
2010,05,04,04,26,2.60
2010,05,04,04,27,2.50
2010,05,04,04,28,2.50
2010,05,04,04,29,2.40
2010,05,04,04,30,2.40
2010,05,04,04,31,2.30
2010,05,04,04,32,2.30
2010,05,04,04,33,2.20
2010,05,04,04,34,2.20
2010,05,04,04,35,2.20
2010,05,04,04,36,2.20
2010,05,04,04,37,2.10
2010,05,04,04,38,2.10
2010,05,04,04,39,2.00
2010,05,04,04,40,2.00
2010,05,04,04,41,2.00
2010,05,04,04,42,2.00
2010,05,04,04,43,1.90
2010,05,04,04,44,1.90
2010,05,04,04,45,1.90
2010,05,04,04,46,1.90
2010,05,04,04,47,1.80
2010,05,04,04,48,1.80
2010,05,04,04,49,1.80
2010,05,04,04,50,1.80
2010,05,04,04,51,1.70
2010,05,04,04,52,1.70
2010,05,04,04,53,1.60
2010,05,04,04,54,1.60
2010,05,04,04,55,1.60
2010,05,04,04,56,1.50
2010,05,04,04,57,1.50
2010,05,04,04,58,1.50
2010,05,04,04,59,1.50
2010,05,04,05,00,1.40
2010,05,04,05,01,1.40
2010,05,04,05,02,1.40
2010,05,04,05,03,1.40
2010,05,04,05,04,1.40
2010,05,04,05,05,1.40
2010,05,04,05,06,1.30
2010,05,04,05,07,1.30
2010,05,04,05,08,1.30
2010,05,04,05,09,1.30
2010,05,04,05,10,1.30
2010,05,04,05,11,1.30
2010,05,04,05,12,1.30
2010,05,04,05,13,1.30
2010,05,04,05,14,1.30
2010,05,04,05,15,1.30
2010,05,04,05,16,1.30
2010,05,04,05,17,1.20
2010,05,04,05,18,1.20
2010,05,04,05,19,1.20
2010,05,04,05,20,1.10
2010,05,04,05,21,1.10
2010,05,04,05,22,1.10
2010,05,04,05,23,1.00
2010,05,04,05,24,1.00
2010,05,04,05,25,1.00
2010,05,04,05,26,1.00
2010,05,04,05,27,0.90
2010,05,04,05,28,0.90
2010,05,04,05,29,0.90
2010,05,04,05,30,0.90
2010,05,04,05,31,0.90
2010,05,04,05,32,0.90
2010,05,04,05,33,0.90
2010,05,04,05,34,0.80
2010,05,04,05,35,0.80
2010,05,04,05,36,0.80
2010,05,04,05,37,0.80
2010,05,04,05,38,0.80
2010,05,04,05,39,0.70
2010,05,04,05,40,0.70
2010,05,04,05,41,0.60
2010,05,04,05,42,0.60
2010,05,04,05,43,0.60
2010,05,04,05,44,0.60
2010,05,04,05,45,0.60
2010,05,04,05,46,0.60
2010,05,04,05,47,0.50
2010,05,04,05,48,0.50
2010,05,04,05,49,0.50
2010,05,04,05,50,0.50
2010,05,04,05,51,0.50
2010,05,04,05,52,0.50
2010,05,04,05,53,0.50
2010,05,04,05,54,0.40
2010,05,04,05,55,0.40
2010,05,04,05,56,0.40
2010,05,04,05,57,0.40
2010,05,04,05,58,0.40
2010,05,04,05,59,0.40
2010,05,04,06,00,0.40
2010,05,04,06,01,0.40
2010,05,04,06,02,0.40
2010,05,04,06,03,0.40
2010,05,04,06,04,0.30
2010,05,04,06,05,0.30
2010,05,04,06,06,0.30
2010,05,04,06,07,0.30
2010,05,04,06,08,0.30
2010,05,04,06,09,0.30
2010,05,04,06,10,0.30
2010,05,04,06,11,0.30
2010,05,04,06,12,0.30
2010,05,04,06,13,0.40
2010,05,04,06,14,0.40
2010,05,04,06,15,0.40
2010,05,04,06,16,0.40
2010,05,04,06,17,0.40
2010,05,04,06,18,0.40
2010,05,04,06,19,0.40
2010,05,04,06,20,0.40
2010,05,04,06,21,0.40
2010,05,04,06,22,0.40
2010,05,04,06,23,0.40
2010,05,04,06,24,0.40
2010,05,04,06,25,0.40
2010,05,04,06,26,0.30
2010,05,04,06,27,0.30
2010,05,04,06,28,0.30
2010,05,04,06,29,0.30
2010,05,04,06,30,0.30
2010,05,04,06,31,0.30
2010,05,04,06,32,0.30
2010,05,04,06,33,0.30
2010,05,04,06,34,0.30
2010,05,04,06,35,0.30
2010,05,04,06,36,0.30
2010,05,04,06,37,0.30
2010,05,04,06,38,0.30
2010,05,04,06,39,0.30
2010,05,04,06,40,0.30
2010,05,04,06,41,0.40
2010,05,04,06,42,0.40
2010,05,04,06,43,0.40
2010,05,04,06,44,0.40
2010,05,04,06,45,0.50
2010,05,04,06,46,0.50
2010,05,04,06,47,0.50
2010,05,04,06,48,0.50
2010,05,04,06,49,0.50
2010,05,04,06,50,0.50
2010,05,04,06,51,0.50
2010,05,04,06,52,0.60
2010,05,04,06,53,0.60
2010,05,04,06,54,0.60
2010,05,04,06,55,0.60
2010,05,04,06,56,0.60
2010,05,04,06,57,0.70
2010,05,04,06,58,0.70
2010,05,04,06,59,0.80
2010,05,04,07,00,0.80
2010,05,04,07,01,0.80
2010,05,04,07,02,0.80
2010,05,04,07,03,0.90
2010,05,04,07,04,0.90
2010,05,04,07,05,1.00
2010,05,04,07,06,1.10
2010,05,04,07,07,1.10
2010,05,04,07,08,1.30
2010,05,04,07,09,1.40
2010,05,04,07,10,1.50
2010,05,04,07,11,1.60
2010,05,04,07,12,1.60
2010,05,04,07,13,1.80
2010,05,04,07,14,1.90
2010,05,04,07,15,2.10
2010,05,04,07,16,2.20
2010,05,04,07,17,2.30
2010,05,04,07,18,2.40
2010,05,04,07,19,2.50
2010,05,04,07,20,2.60
2010,05,04,07,21,2.70
2010,05,04,07,22,2.80
2010,05,04,07,23,2.90
2010,05,04,07,24,3.00
2010,05,04,07,25,3.10
2010,05,04,07,26,3.20
2010,05,04,07,27,3.30
2010,05,04,07,28,3.40
2010,05,04,07,29,3.60
2010,05,04,07,30,3.70
2010,05,04,07,31,3.80
2010,05,04,07,32,4.00
2010,05,04,07,33,4.10
2010,05,04,07,34,4.20
2010,05,04,07,35,4.40
2010,05,04,07,36,4.50
2010,05,04,07,37,4.60
2010,05,04,07,38,4.60
2010,05,04,07,39,4.70
2010,05,04,07,40,4.80
2010,05,04,07,41,4.90
2010,05,04,07,42,5.00
2010,05,04,07,43,5.10
2010,05,04,07,44,5.10
2010,05,04,07,45,5.20
2010,05,04,07,46,5.30
2010,05,04,07,47,5.30
2010,05,04,07,48,5.30
2010,05,04,07,49,5.40
2010,05,04,07,50,5.50
2010,05,04,07,51,5.60
2010,05,04,07,52,5.70
2010,05,04,07,53,5.80
2010,05,04,07,54,5.90
2010,05,04,07,55,6.00
2010,05,04,07,56,6.00
2010,05,04,07,57,6.00
2010,05,04,07,58,6.00
2010,05,04,07,59,6.10
2010,05,04,08,00,6.20
2010,05,04,08,01,6.20
2010,05,04,08,02,6.30
2010,05,04,08,03,6.40
2010,05,04,08,04,6.40
2010,05,04,08,05,6.50
2010,05,04,08,06,6.60
2010,05,04,08,07,6.60
2010,05,04,08,08,6.70
2010,05,04,08,09,6.70
2010,05,04,08,10,6.70
2010,05,04,08,11,6.80
2010,05,04,08,12,6.80
2010,05,04,08,13,6.80
2010,05,04,08,14,6.90
2010,05,04,08,15,6.90
2010,05,04,08,16,7.00
2010,05,04,08,17,7.10
2010,05,04,08,18,7.10
2010,05,04,08,19,7.10
2010,05,04,08,20,7.20
2010,05,04,08,21,7.20
2010,05,04,08,22,7.30
2010,05,04,08,23,7.30
2010,05,04,08,24,7.40
2010,05,04,08,25,7.50
2010,05,04,08,26,7.60
2010,05,04,08,27,7.70
2010,05,04,08,28,7.80
2010,05,04,08,29,7.80
2010,05,04,08,30,7.90
2010,05,04,08,31,7.90
2010,05,04,08,32,8.00
2010,05,04,08,33,8.10
2010,05,04,08,34,8.20
2010,05,04,08,35,8.20
2010,05,04,08,36,8.20
2010,05,04,08,37,8.20
2010,05,04,08,38,8.20
2010,05,04,08,39,8.20
2010,05,04,08,40,8.20
2010,05,04,08,41,8.10
2010,05,04,08,42,8.10
2010,05,04,08,43,8.00
2010,05,04,08,44,8.00
2010,05,04,08,45,7.90
2010,05,04,08,46,7.90
2010,05,04,08,47,7.80
2010,05,04,08,48,7.80
2010,05,04,08,49,7.70
2010,05,04,08,50,7.70
2010,05,04,08,51,7.70
2010,05,04,08,52,7.70
2010,05,04,08,53,7.70
2010,05,04,08,54,7.80
2010,05,04,08,55,7.80
2010,05,04,08,56,7.80
2010,05,04,08,57,7.80
2010,05,04,08,58,7.90
2010,05,04,08,59,8.00
2010,05,04,09,00,8.00
2010,05,04,09,01,8.00
2010,05,04,09,02,8.00
2010,05,04,09,03,8.10
2010,05,04,09,04,8.20
2010,05,04,09,05,8.20
2010,05,04,09,06,8.30
2010,05,04,09,07,8.30
2010,05,04,09,08,8.40
2010,05,04,09,09,8.40
2010,05,04,09,10,8.40
2010,05,04,09,11,8.30
2010,05,04,09,12,8.30
2010,05,04,09,13,8.20
2010,05,04,09,14,8.10
2010,05,04,09,15,8.00
2010,05,04,09,16,7.90
2010,05,04,09,17,7.90
2010,05,04,09,18,7.80
2010,05,04,09,19,7.80
2010,05,04,09,20,7.90
2010,05,04,09,21,8.00
2010,05,04,09,22,8.10
2010,05,04,09,23,8.20
2010,05,04,09,24,8.30
2010,05,04,09,25,8.40
2010,05,04,09,26,8.50
2010,05,04,09,27,8.70
2010,05,04,09,28,8.70
2010,05,04,09,29,8.70
2010,05,04,09,30,8.70
2010,05,04,09,31,8.70
2010,05,04,09,32,8.70
2010,05,04,09,33,8.70
2010,05,04,09,34,8.70
2010,05,04,09,35,8.70
2010,05,04,09,36,8.70
2010,05,04,09,37,8.70
2010,05,04,09,38,8.70
2010,05,04,09,39,8.60
2010,05,04,09,40,8.60
2010,05,04,09,41,8.50
2010,05,04,09,42,8.50
2010,05,04,09,43,8.50
2010,05,04,09,44,8.60
2010,05,04,09,45,8.60
2010,05,04,09,46,8.60
2010,05,04,09,47,8.50
2010,05,04,09,48,8.40
2010,05,04,09,49,8.40
2010,05,04,09,50,8.30
2010,05,04,09,51,8.20
2010,05,04,09,52,8.20
2010,05,04,09,53,8.20
2010,05,04,09,54,8.30
2010,05,04,09,55,8.40
2010,05,04,09,56,8.50
2010,05,04,09,57,8.60
2010,05,04,09,58,8.70
2010,05,04,09,59,8.70
2010,05,04,10,00,8.80
2010,05,04,10,01,8.70
2010,05,04,10,02,8.70
2010,05,04,10,03,8.70
2010,05,04,10,04,8.70
2010,05,04,10,05,8.60
2010,05,04,10,06,8.50
2010,05,04,10,07,8.60
2010,05,04,10,08,8.60
2010,05,04,10,09,8.60
2010,05,04,10,10,8.70
2010,05,04,10,11,8.70
2010,05,04,10,12,8.70
2010,05,04,10,13,8.80
2010,05,04,10,14,8.90
2010,05,04,10,15,9.00
2010,05,04,10,16,9.10
2010,05,04,10,17,9.20
2010,05,04,10,18,9.10
2010,05,04,10,19,9.00
2010,05,04,10,20,8.90
2010,05,04,10,21,9.00
2010,05,04,10,22,9.20
2010,05,04,10,23,9.30
2010,05,04,10,24,9.30
2010,05,04,10,25,9.30
2010,05,04,10,26,9.30
2010,05,04,10,27,9.40
2010,05,04,10,28,9.40
2010,05,04,10,29,9.50
2010,05,04,10,30,9.50
2010,05,04,10,31,9.40
2010,05,04,10,32,9.30
2010,05,04,10,33,9.20
2010,05,04,10,34,9.10
2010,05,04,10,35,9.00
2010,05,04,10,36,8.90
2010,05,04,10,37,8.90
2010,05,04,10,38,9.00
2010,05,04,10,39,9.00
2010,05,04,10,40,9.00
2010,05,04,10,41,9.10
2010,05,04,10,42,9.10
2010,05,04,10,43,9.10
2010,05,04,10,44,9.20
2010,05,04,10,45,9.30
2010,05,04,10,46,9.30
2010,05,04,10,47,9.20
2010,05,04,10,48,9.20
2010,05,04,10,49,9.10
2010,05,04,10,50,9.00
2010,05,04,10,51,8.90
2010,05,04,10,52,8.90
2010,05,04,10,53,8.90
2010,05,04,10,54,8.80
2010,05,04,10,55,8.80
2010,05,04,10,56,8.80
2010,05,04,10,57,8.90
2010,05,04,10,58,8.90
2010,05,04,10,59,9.00
2010,05,04,11,00,9.00
2010,05,04,11,01,9.10
2010,05,04,11,02,9.20
2010,05,04,11,03,9.40
2010,05,04,11,04,9.60
2010,05,04,11,05,9.70
2010,05,04,11,06,9.70
2010,05,04,11,07,9.70
2010,05,04,11,08,9.70
2010,05,04,11,09,9.80
2010,05,04,11,10,9.90
2010,05,04,11,11,9.90
2010,05,04,11,12,10.10
2010,05,04,11,13,10.10
2010,05,04,11,14,10.10
2010,05,04,11,15,10.10
2010,05,04,11,16,10.10
2010,05,04,11,17,10.10
2010,05,04,11,18,10.10
2010,05,04,11,19,10.20
2010,05,04,11,20,10.20
2010,05,04,11,21,10.20
2010,05,04,11,22,10.30
2010,05,04,11,23,10.40
2010,05,04,11,24,10.40
2010,05,04,11,25,10.40
2010,05,04,11,26,10.40
2010,05,04,11,27,10.40
2010,05,04,11,28,10.50
2010,05,04,11,29,10.60
2010,05,04,11,30,10.60
2010,05,04,11,31,10.60
2010,05,04,11,32,10.50
2010,05,04,11,33,10.50
2010,05,04,11,34,10.50
2010,05,04,11,35,10.40
2010,05,04,11,36,10.50
2010,05,04,11,37,10.60
2010,05,04,11,38,10.60
2010,05,04,11,39,10.70
2010,05,04,11,40,10.80
2010,05,04,11,41,10.90
2010,05,04,11,42,10.90
2010,05,04,11,43,10.90
2010,05,04,11,44,10.90
2010,05,04,11,45,10.90
2010,05,04,11,46,11.10
2010,05,04,11,47,11.10
2010,05,04,11,48,11.10
2010,05,04,11,49,11.00
2010,05,04,11,50,10.90
2010,05,04,11,51,10.90
2010,05,04,11,52,10.90
2010,05,04,11,53,11.10
2010,05,04,11,54,11.20
2010,05,04,11,55,11.10
2010,05,04,11,56,11.10
2010,05,04,11,57,11.10
2010,05,04,11,58,11.20
2010,05,04,11,59,11.30
2010,05,04,12,00,11.40
2010,05,04,12,01,11.40
2010,05,04,12,02,11.30
2010,05,04,12,03,11.10
2010,05,04,12,04,10.80
2010,05,04,12,05,10.50
2010,05,04,12,06,10.40
2010,05,04,12,07,10.10
2010,05,04,12,08,10.00
2010,05,04,12,09,9.80
2010,05,04,12,10,9.60
2010,05,04,12,11,9.40
2010,05,04,12,12,9.20
2010,05,04,12,13,9.00
2010,05,04,12,14,8.80
2010,05,04,12,15,8.60
2010,05,04,12,16,8.40
2010,05,04,12,17,8.10
2010,05,04,12,18,8.00
2010,05,04,12,19,7.80
2010,05,04,12,20,7.70
2010,05,04,12,21,7.50
2010,05,04,12,22,7.40
2010,05,04,12,23,7.20
2010,05,04,12,24,7.10
2010,05,04,12,25,7.00
2010,05,04,12,26,6.90
2010,05,04,12,27,6.80
2010,05,04,12,28,6.80
2010,05,04,12,29,6.70
2010,05,04,12,30,6.50
2010,05,04,12,31,6.30
2010,05,04,12,32,6.00
2010,05,04,12,33,5.80
2010,05,04,12,34,5.70
2010,05,04,12,35,5.50
2010,05,04,12,36,5.40
2010,05,04,12,37,5.40
2010,05,04,12,38,5.30
2010,05,04,12,39,5.30
2010,05,04,12,40,5.30
2010,05,04,12,41,5.30
2010,05,04,12,42,5.20
2010,05,04,12,43,5.10
2010,05,04,12,44,5.10
2010,05,04,12,45,5.00
2010,05,04,12,46,4.90
2010,05,04,12,47,4.80
2010,05,04,12,48,4.70
2010,05,04,12,49,4.60
2010,05,04,12,50,4.60
2010,05,04,12,51,4.60
2010,05,04,12,52,4.60
2010,05,04,12,53,4.20
2010,05,04,12,54,4.10
2010,05,04,12,55,4.00
2010,05,04,12,56,3.90
2010,05,04,12,57,3.80
2010,05,04,12,58,3.80
2010,05,04,12,59,3.70
2010,05,04,13,00,3.60
2010,05,04,13,01,3.60
2010,05,04,13,02,3.50
2010,05,04,13,03,3.50
2010,05,04,13,04,3.40
2010,05,04,13,05,3.40
2010,05,04,13,06,3.30
2010,05,04,13,07,3.30
2010,05,04,13,08,3.30
2010,05,04,13,09,3.30
2010,05,04,13,10,3.30
2010,05,04,13,11,3.30
2010,05,04,13,12,3.20
2010,05,04,13,13,3.20
2010,05,04,13,14,3.20
2010,05,04,13,15,3.20
2010,05,04,13,16,3.10
2010,05,04,13,17,3.10
2010,05,04,13,18,3.10
2010,05,04,13,19,3.10
2010,05,04,13,20,3.10
2010,05,04,13,21,3.10
2010,05,04,13,22,3.10
2010,05,04,13,23,3.20
2010,05,04,13,24,3.20
2010,05,04,13,25,3.20
2010,05,04,13,26,3.30
2010,05,04,13,27,3.30
2010,05,04,13,28,3.30
2010,05,04,13,29,3.30
2010,05,04,13,30,3.30
2010,05,04,13,31,3.30
2010,05,04,13,32,3.40
2010,05,04,13,33,3.40
2010,05,04,13,34,3.50
2010,05,04,13,35,3.50
2010,05,04,13,36,3.60
2010,05,04,13,37,3.70
2010,05,04,13,38,3.80
2010,05,04,13,39,3.80
2010,05,04,13,40,3.90
2010,05,04,13,41,4.00
2010,05,04,13,42,4.10
2010,05,04,13,43,4.20
2010,05,04,13,44,4.20
2010,05,04,13,45,4.30
2010,05,04,13,46,4.40
2010,05,04,13,47,4.40
2010,05,04,13,48,4.50
2010,05,04,13,49,4.50
2010,05,04,13,50,4.50
2010,05,04,13,51,4.50
2010,05,04,13,52,4.60
2010,05,04,13,53,4.60
2010,05,04,13,54,4.60
2010,05,04,13,55,4.70
2010,05,04,13,56,4.70
2010,05,04,13,57,4.70
2010,05,04,13,58,4.80
2010,05,04,13,59,4.80
2010,05,04,14,00,4.90
2010,05,04,14,01,4.90
2010,05,04,14,02,4.90
2010,05,04,14,03,5.10
2010,05,04,14,04,5.10
2010,05,04,14,05,5.20
2010,05,04,14,06,5.30
2010,05,04,14,07,5.40
2010,05,04,14,08,5.50
2010,05,04,14,09,5.60
2010,05,04,14,10,5.70
2010,05,04,14,11,5.90
2010,05,04,14,12,6.10
2010,05,04,14,13,6.30
2010,05,04,14,14,6.50
2010,05,04,14,15,6.60
2010,05,04,14,16,6.70
2010,05,04,14,17,6.70
2010,05,04,14,18,6.80
2010,05,04,14,19,6.90
2010,05,04,14,20,7.00
2010,05,04,14,21,7.10
2010,05,04,14,22,7.30
2010,05,04,14,23,7.30
2010,05,04,14,24,7.40
2010,05,04,14,25,7.30
2010,05,04,14,26,7.40
2010,05,04,14,27,7.40
2010,05,04,14,28,7.50
2010,05,04,14,29,7.50
2010,05,04,14,30,7.50
2010,05,04,14,31,7.40
2010,05,04,14,32,7.40
2010,05,04,14,33,7.40
2010,05,04,14,34,7.40
2010,05,04,14,35,7.40
2010,05,04,14,36,7.40
2010,05,04,14,37,7.40
2010,05,04,14,38,7.40
2010,05,04,14,39,7.40
2010,05,04,14,40,7.50
2010,05,04,14,41,7.50
2010,05,04,14,42,7.50
2010,05,04,14,43,7.50
2010,05,04,14,44,7.60
2010,05,04,14,45,7.60
2010,05,04,14,46,7.70
2010,05,04,14,47,7.70
2010,05,04,14,48,7.70
2010,05,04,14,49,7.80
2010,05,04,14,50,7.90
2010,05,04,14,51,7.90
2010,05,04,14,52,8.00
2010,05,04,14,53,8.10
2010,05,04,14,54,8.20
2010,05,04,14,55,8.30
2010,05,04,14,56,8.30
2010,05,04,14,57,8.30
2010,05,04,14,58,8.40
2010,05,04,14,59,8.30
2010,05,04,15,00,8.30
2010,05,04,15,01,8.30
2010,05,04,15,02,8.20
2010,05,04,15,03,8.20
2010,05,04,15,04,8.20
2010,05,04,15,05,8.10
2010,05,04,15,06,8.10
2010,05,04,15,07,8.10
2010,05,04,15,08,8.10
2010,05,04,15,09,8.10
2010,05,04,15,10,8.10
2010,05,04,15,11,8.00
2010,05,04,15,12,7.90
2010,05,04,15,13,7.90
2010,05,04,15,14,7.80
2010,05,04,15,15,7.80
2010,05,04,15,16,7.80
2010,05,04,15,17,7.70
2010,05,04,15,18,7.60
2010,05,04,15,19,7.50
2010,05,04,15,20,7.40
2010,05,04,15,21,7.30
2010,05,04,15,22,7.30
2010,05,04,15,23,7.20
2010,05,04,15,24,7.20
2010,05,04,15,25,7.10
2010,05,04,15,26,7.00
2010,05,04,15,27,7.00
2010,05,04,15,28,7.00
2010,05,04,15,29,6.90
2010,05,04,15,30,6.80
2010,05,04,15,31,6.80
2010,05,04,15,32,6.80
2010,05,04,15,33,6.80
2010,05,04,15,34,6.70
2010,05,04,15,35,6.70
2010,05,04,15,36,6.70
2010,05,04,15,37,6.70
2010,05,04,15,38,6.70
2010,05,04,15,39,6.70
2010,05,04,15,40,6.70
2010,05,04,15,41,6.70
2010,05,04,15,42,6.70
2010,05,04,15,43,6.60
2010,05,04,15,44,6.60
2010,05,04,15,45,6.60
2010,05,04,15,46,6.60
2010,05,04,15,47,6.60
2010,05,04,15,48,6.60
2010,05,04,15,49,6.60
2010,05,04,15,50,6.60
2010,05,04,15,51,6.40
2010,05,04,15,52,6.40
2010,05,04,15,53,6.40
2010,05,04,15,54,6.40
2010,05,04,15,55,6.40
2010,05,04,15,56,6.40
2010,05,04,15,57,6.30
2010,05,04,15,58,6.30
2010,05,04,15,59,6.30
2010,05,04,16,00,6.30
2010,05,04,16,01,6.30
2010,05,04,16,02,6.30
2010,05,04,16,03,6.20
2010,05,04,16,04,6.20
2010,05,04,16,05,6.20
2010,05,04,16,06,6.20
2010,05,04,16,07,6.20
2010,05,04,16,08,6.20
2010,05,04,16,09,6.20
2010,05,04,16,10,6.20
2010,05,04,16,11,6.20
2010,05,04,16,12,6.20
2010,05,04,16,13,6.20
2010,05,04,16,14,6.20
2010,05,04,16,15,6.20
2010,05,04,16,16,6.20
2010,05,04,16,17,6.10
2010,05,04,16,18,6.10
2010,05,04,16,19,6.10
2010,05,04,16,20,6.10
2010,05,04,16,21,6.00
2010,05,04,16,22,6.00
2010,05,04,16,23,6.00
2010,05,04,16,24,6.00
2010,05,04,16,25,6.00
2010,05,04,16,26,6.00
2010,05,04,16,27,6.00
2010,05,04,16,28,6.00
2010,05,04,16,29,6.00
2010,05,04,16,30,6.10
2010,05,04,16,31,6.10
2010,05,04,16,32,6.10
2010,05,04,16,33,6.10
2010,05,04,16,34,6.10
2010,05,04,16,35,6.10
2010,05,04,16,36,6.00
2010,05,04,16,37,6.00
2010,05,04,16,38,6.00
2010,05,04,16,39,6.00
2010,05,04,16,40,6.00
2010,05,04,16,41,5.90
2010,05,04,16,42,5.90
2010,05,04,16,43,6.00
2010,05,04,16,44,6.00
2010,05,04,16,45,6.00
2010,05,04,16,46,6.10
2010,05,04,16,47,6.10
2010,05,04,16,48,6.20
2010,05,04,16,49,6.20
2010,05,04,16,50,6.20
2010,05,04,16,51,6.20
2010,05,04,16,52,6.20
2010,05,04,16,53,6.20
2010,05,04,16,54,6.30
2010,05,04,16,55,6.30
2010,05,04,16,56,6.30
2010,05,04,16,57,6.30
2010,05,04,16,58,6.30
2010,05,04,16,59,6.30
2010,05,04,17,00,6.40
2010,05,04,17,01,6.50
2010,05,04,17,02,6.60
2010,05,04,17,03,6.60
2010,05,04,17,04,6.70
2010,05,04,17,05,6.80
2010,05,04,17,06,6.80
2010,05,04,17,07,6.90
2010,05,04,17,08,7.00
2010,05,04,17,09,7.10
2010,05,04,17,10,7.10
2010,05,04,17,11,7.20
2010,05,04,17,12,7.30
2010,05,04,17,13,7.30
2010,05,04,17,14,7.30
2010,05,04,17,15,7.30
2010,05,04,17,16,7.30
2010,05,04,17,17,7.30
2010,05,04,17,18,7.30
2010,05,04,17,19,7.30
2010,05,04,17,20,7.40
2010,05,04,17,21,7.50
2010,05,04,17,22,7.50
2010,05,04,17,23,7.60
2010,05,04,17,24,7.70
2010,05,04,17,25,7.80
2010,05,04,17,26,7.80
2010,05,04,17,27,7.90
2010,05,04,17,28,7.90
2010,05,04,17,29,7.90
2010,05,04,17,30,7.90
2010,05,04,17,31,7.90
2010,05,04,17,32,8.00
2010,05,04,17,33,8.10
2010,05,04,17,34,8.10
2010,05,04,17,35,8.20
2010,05,04,17,36,8.20
2010,05,04,17,37,8.30
2010,05,04,17,38,8.40
2010,05,04,17,39,8.40
2010,05,04,17,40,8.40
2010,05,04,17,41,8.40
2010,05,04,17,42,8.40
2010,05,04,17,43,8.40
2010,05,04,17,44,8.40
2010,05,04,17,45,8.40
2010,05,04,17,46,8.40
2010,05,04,17,47,8.40
2010,05,04,17,48,8.40
2010,05,04,17,49,8.40
2010,05,04,17,50,8.40
2010,05,04,17,51,8.30
2010,05,04,17,52,8.30
2010,05,04,17,53,8.30
2010,05,04,17,54,8.20
2010,05,04,17,55,8.20
2010,05,04,17,56,8.20
2010,05,04,17,57,8.10
2010,05,04,17,58,8.10
2010,05,04,17,59,8.00
2010,05,04,18,00,7.90
2010,05,04,18,01,7.80
2010,05,04,18,02,7.80
2010,05,04,18,03,7.70
2010,05,04,18,04,7.60